Regional Weather Roundup
Issued by NWS Goodland, KS

Home | Current Version | Previous Version | Graphics & Text | Print | Product List | Glossary On
Versions: 1 2 3 4 5 6 7 8 9 10 11 12 13 14 15 16 17 18 19 20 21 22 23 24 25 26 27 28 29 30 31 32 33 34 35 36 37 38 39 40 41 42 43 44 45 46 47 48 49 50
608
ASUS43 KGLD 252059
RWRGLD

GOODLAND FORECAST AREA HOURLY WEATHER ROUNDUP
NATIONAL WEATHER SERVICE GOODLAND KS
300 PM MDT FRI MAY 25 2018

...OFFICIAL OBSERVATIONS...

CITY           SKY/WX    TMP DP  RH WIND       PRES   REMARKS
GOODLAND KS    MOSUNNY   89  43  20 MISG      29.94F
HILL CITY KS   SUNNY     92  62  36 CALM      29.88F
IMPERIAL NEB   SUNNY     96  33  11 VRB6      29.91F
MCCOOK NEB     MOSUNNY   86  56  35 W6        29.87F
AKRON CO       SUNNY     86  44  23 VRB6      30.01F
BURLINGTON CO  MOSUNNY   86  46  24 SE13      29.98F
LIMON CO       MOSUNNY   85  32  15 SE7       30.04F
$$

...UNOFFICIAL OBSERVATIONS...

CITY           SKY/WX    TMP DP  RH WIND       PRES   REMARKS
NORTON KS      SUNNY     93  54  26 SE3       29.86
SHARON SPRINGS   N/A     90  53  28 MISG        N/A
KIT CARSON CO    N/A     88  46  22 MISG        N/A
YUMA CO        FAIR      86  43  22 SW7       29.97F
$$




USA.gov is the U.S. government's official web portal to all federal, state and local government web resources and services.